Overview Statistics Trail Chart Weather Telemetry Raw packets
 

This is the latest recevied weather packets stored in our database for station/object GBTWP-2. If no packets are shown the sender has not sent any weather packets the latest 10 day(s).

<< 43 44 45 46 47 48 49 >>
Time Temp. Humidity Pressure Rain* Wind** Luminosity Snow
1788385919 32.22° C 61% 1015 hPa 0 mm - 145 W/m² -
1788385620 32.22° C 61% 1015.1 hPa 0 mm - 125 W/m² -
1788385319 32.22° C 60% 1014.6 hPa 0 mm - 109 W/m² -
1788385020 32.22° C 59% 1014.4 hPa 0 mm - 95 W/m² -
1788384719 32.22° C 59% 1014.5 hPa 0 mm - 122 W/m² -
1788384420 32.22° C 60% 1014.7 hPa 0 mm - 105 W/m² -
1788384119 32.22° C 59% 1015 hPa 0 mm - 124 W/m² -
1788383820 32.22° C 62% 1015.1 hPa 0 mm - 115 W/m² -
1788383519 32.22° C 61% 1015.1 hPa 0 mm - 95 W/m² -
1788383220 32.22° C 61% 1015.1 hPa 0 mm - 127 W/m² -
1788382919 32.22° C 61% 1015.1 hPa 0 mm - 126 W/m² -
1788382620 32.22° C 60% 1015.2 hPa 0 mm - 127 W/m² -
1788382319 32.22° C 59% 1015.2 hPa 0 mm - 120 W/m² -
1788382020 32.22° C 56% 1015.1 hPa 0 mm - 134 W/m² -
1788381719 32.22° C 61% 1015 hPa 0 mm - 135 W/m² -
1788381420 32.22° C 59% 1015.2 hPa 0 mm - 128 W/m² -
1788381119 32.78° C 58% 1015.1 hPa 0 mm - 271 W/m² -
1788380820 32.22° C 59% 1015.3 hPa 0 mm - 303 W/m² -
1788380518 33.33° C 57% 1015.4 hPa 0 mm - 257 W/m² -
1788380220 33.33° C 58% 1015.2 hPa 0 mm - 222 W/m² -
1788379917 33.89° C 58% 1015.4 hPa 0 mm - 330 W/m² -
1788379620 33.33° C 58% 1015.6 hPa 0 mm - 440 W/m² -
1788379320 33.33° C 58% 1015.6 hPa 0 mm - 293 W/m² -
1788379019 33.33° C 58% 1015.8 hPa 0 mm - 311 W/m² -
1788378719 33.89° C 57% 1015.7 hPa 0 mm - 214 W/m² -

* Rain latest hour (hover to see other rain measurements)
** Current wind speed in m/s (hover to see current wind gust speed)